Location: Arbon
(43.0005°N, 0.7472°E)
Time: 16:18:04
(UTC+00:00)

A-11 Canister half - Visible Passes

Search period start: 26 November 2020 00:00
Search period end: 06 December 2020 00:00
Orbit: 1516 x 1684 km, 47.2° (Epoch: 26 November)

Date Brightness Start Highest point End Pass type
(mag) Time Alt. Az. Time Alt. Az. Time Alt. Az.
26 Nov 9.3 17:51:53 10° WNW 18:02:01 73° SSW 18:12:03 10° SE visible
26 Nov 10.6 19:57:56 10° WNW 20:05:54 27° SW 20:11:50 16° S visible
27 Nov 9.4 17:28:55 10° WNW 17:39:05 76° SSW 17:49:09 10° SE visible
27 Nov 10.5 19:34:50 10° WNW 19:43:04 29° SW 19:51:12 10° S visible
28 Nov 9.4 17:05:58 10° WNW 17:16:08 79° SSW 17:26:15 10° SE visible
28 Nov 10.5 19:11:44 10° WNW 19:20:12 31° SW 19:28:34 10° S visible
29 Nov 9.4 16:43:00 10° WNW 16:53:12 81° SSW 17:03:20 10° ESE visible
29 Nov 10.5 18:48:41 10° WNW 18:57:21 33° SW 19:05:55 10° S visible
30 Nov 10.5 18:25:38 10° WNW 18:34:29 36° SW 18:43:15 10° SSE visible
01 Dec 10.5 18:02:37 10° WNW 18:11:37 38° SW 18:20:34 10° SSE visible
02 Dec 10.4 17:39:35 10° WNW 17:48:44 40° SW 17:57:50 10° SSE visible
03 Dec 10.4 17:16:35 10° WNW 17:25:51 42° SW 17:35:06 10° SSE visible
04 Dec 10.4 16:53:35 10° WNW 17:02:58 45° SW 17:12:22 10° SSE visible
04 Dec 11.7 19:03:41 10° WSW 19:05:59 11° WSW 19:08:18 10° SW visible
05 Dec 11.7 18:39:38 10° W 18:43:11 12° WSW 18:46:46 10° SW visible
